[[{"header":{"parameterUnit":"m.s-1","parameterCategory":1,"la1":30.2991,"la2":30.254,"lo1":-89.0895,"lo2":-89.0444,"dy":0.0017,"dx":0.0017,"nx":28,"ny":28,"refTime":"2024-08-10T09:00:00:Z","depth":0,"parameterNumber":2,"parameterNumberName":"U-component_of_WINDS"},"data":[0,0,0,0,0,0,0,0,0,0,0,0,0,0,0,0,0,0,0,0,0,0,0,0,0,0,0,0,0,0,0,0,0,0,0,0,0,0,0,0,0,0,0,0,0,0,0,0,0,0,0,0,0,0,0,0,0,0,-1.0585,-1.0584,0,-1.0484,-1.0483,-1.0482,-1.0357,-1.0356,-1.0354,-1.0352,-1.0249,-1.0248,-1.0248,0,0,0,0,0,0,0,0,0,0,0,0,0,-1.0672,-1.0671,-1.0585,-1.0584,-1.0582,-1.0484,-1.0483,-1.0481,-1.0358,-1.0355,-1.0353,-1.0351,-1.025,-1.0249,-1.0248,0,0,0,0,0,0,0,0,0,0,0,0,0,-1.0609,-1.0671,-1.0585,-1.0509,-1.0501,-1.0484,-1.0483,-1.0481,-1.0358,-1.0355,-1.0352,-1.035,-1.025,-1.0249,-1.0247,-1.0298,0,0,-1.0243,-1.0243,0,0,0,0,0,0,0,0,-1.0613,-1.0606,-1.0521,-1.0514,-1.0505,-1.043,-1.0476,-1.042,-1.0359,-1.0413,-1.0352,-1.0348,-1.0312,-1.0305,-1.0293,-1.0293,-1.0288,-1.0243,-1.0242,-1.0242,-1.0241,0,0,0,0,0,0,0,-1.0617,-1.061,-1.0545,-1.052,-1.051,-1.048,-1.0468,-1.0464,-1.038,-1.0408,-1.0398,-1.0388,-1.0307,-1.0295,-1.029,-1.0287,-1.0243,-1.0242,-1.0241,-1.0241,-1.0324,-1.0327,0,0,0,0,0,0,-1.0633,-1.0614,-1.0548,-1.0542,-1.0553,-1.0481,-1.0467,-1.0457,-1.038,-1.0365,-1.0391,-1.0383,-1.0298,-1.0291,-1.0286,-1.0339,-1.0242,-1.024,-1.024,-1.0321,-1.0325,-1.0328,0,0,0,0,0,0,-1.0635,-1.0628,-1.0552,-1.0575,-1.0563,-1.0483,-1.0472,-1.0457,-1.0444,-1.0367,-1.0351,-1.0393,-1.0296,-1.0287,-1.0296,-1.0334,-1.024,-1.0239,-1.0318,-1.0322,-1.0326,-1.0448,0,0,0,0,0,0,-1.0638,-1.063,-1.0648,-1.0577,-1.0563,-1.0564,-1.0475,-1.0457,-1.0442,-1.0431,-1.0365,-1.0352,-1.0293,-1.0298,-1.0294,-1.0331,-1.0238,-1.0314,-1.032,-1.0325,-1.044,-1.0456,-1.047,0,0,0,0,0,-1.0642,-1.0686,-1.0649,-1.0642,-1.0583,-1.0566,-1.0558,-1.0489,-1.0446,-1.0463,-1.0414,-1.0354,-1.0331,-1.03,-1.0295,-1.0331,-1.0311,-1.0318,-1.0325,-1.0434,-1.0453,-1.047,0,0,0,0,0,0,-1.0763,-1.0675,-1.0633,-1.0656,-1.062,-1.0545,-1.0565,-1.0512,-1.0488,-1.0478,-1.0394,-1.038,-1.0399,-1.0366,-1.0333,-1.0376,-1.0312,-1.0318,-1.0397,-1.0415,-1.0429,-1.0437,-1.0236,0,0,0,0,0,-1.0793,-1.0786,-1.0709,-1.0737,-1.0721,-1.0647,-1.0637,-1.0587,-1.0546,-1.053,-1.0481,-1.0444,-1.0428,-1.042,-1.0401,-1.0435,-1.042,-1.0458,-1.0473,-1.0485,-1.0491,-1.0508,-1.0524,-1.035,-1.035,-1.035,0,0,-1.0853,-1.0804,-1.0805,-1.076,-1.0726,-1.0721,-1.0634,-1.0633,-1.0629,-1.053,-1.0534,-1.0498,-1.0451,-1.0473,-1.048,-1.0445,-1.0536,-1.0494,-1.0505,-1.0503,-1.0516,-1.0533,-1.0547,-1.0355,-1.0354,-1.0354,0,0,-1.0961,-1.0924,-1.0942,-1.091,-1.086,-1.081,-1.0815,-1.0749,-1.0721,-1.0725,-1.0651,-1.0645,-1.062,-1.059,-1.0571,-1.067,-1.0614,-1.0666,-1.0744,-1.076,-1.0774,-1.0786,-1.0821,-1.0835,-1.0673,-1.0673,-1.0673,0,-1.1043,-1.1032,-1.0958,-1.0962,-1.0944,-1.0855,-1.0874,-1.0846,-1.0793,-1.0783,-1.0746,-1.0713,-1.0675,-1.0689,-1.0713,-1.0701,-1.0705,-1.0673,-1.0778,-1.0789,-1.0799,-1.0832,-1.0845,-1.068,-1.0679,-1.0678,-1.0678,0,-1.1135,-1.1129,-1.1151,-1.1101,-1.1086,-1.1098,-1.1026,-1.102,-1.0972,-1.0928,-1.0933,-1.0885,-1.0855,-1.0855,-1.0808,-1.0863,-1.0843,-1.0793,-1.0727,-1.0823,-1.0853,-1.0865,-1.0689,-1.0687,-1.0685,-1.0683,0,0,-1.1315,-1.1226,-1.1235,-1.1212,-1.1151,-1.1145,-1.1153,-1.1124,-1.1121,-1.1088,-1.1092,-1.1074,-1.1028,-1.1007,-1.0956,-1.0971,-1.1053,-1.0919,-1.0917,-1.0946,-1.1111,-1.1149,-1.1164,-1.1016,-1.1018,-1.102,-1.1115,0,-1.1411,-1.1419,-1.1353,-1.1379,-1.1373,-1.1289,-1.1296,-1.126,-1.1218,-1.1208,-1.1162,-1.1151,-1.109,-1.1078,-1.1089,-1.1041,-1.1085,-1.1033,-1.102,-1.1021,-1.1034,-1.118,-1.1219,-1.1311,-1.1126,-1.1128,-1.1129,0,-1.1524,-1.1497,-1.1523,-1.1461,-1.1456,-1.1463,-1.1432,-1.1423,-1.1381,-1.135,-1.1328,-1.127,-1.1274,-1.1212,-1.1217,-1.1184,-1.1175,-1.1151,-1.1153,-1.1148,-1.108,-1.1179,-1.1338,-1.1352,-1.1147,-1.1145,-1.1144,0,-1.1653,-1.1623,-1.1634,-1.1617,-1.1546,-1.1553,-1.1524,-1.1479,-1.1466,-1.1439,-1.143,-1.1405,-1.1391,-1.1373,-1.131,-1.1271,-1.1323,-1.1255,-1.1298,-1.13,-1.1312,-1.1312,-1.1472,-1.1307,-1.1307,-1.1307,-1.1306,0,-1.1767,-1.1786,-1.1691,-1.1698,-1.1717,-1.1643,-1.1663,-1.1626,-1.1587,-1.1586,-1.1512,-1.1513,-1.143,-1.1422,-1.1373,-1.1385,-1.1379,-1.1355,-1.1341,-1.1361,-1.1364,-1.1353,-1.1345,-1.131,-1.131,-1.1309,-1.1308,0,-1.1913,-1.1851,-1.1858,-1.179,-1.1774,-1.1791,-1.1733,-1.1737,-1.1692,-1.1692,-1.1687,-1.1617,-1.1603,-1.1539,-1.1511,-1.1478,-1.1507,-1.1481,-1.1521,-1.1512,-1.1558,-1.1555,-1.1716,-1.1734,-1.1559,-1.1561,-1.1563,0,-1.199,-1.2002,-1.1936,-1.193,-1.1904,-1.1895,-1.1882,-1.181,-1.1799,-1.1753,-1.1763,-1.1744,-1.1724,-1.1707,-1.1654,-1.1632,-1.1604,-1.1663,-1.1601,-1.162,-1.1605,-1.1605,-1.1607,-1.1676,-1.1678,-1.168,-1.1681,0,-1.2132,-1.2101,-1.2085,-1.2058,-1.2045,-1.202,-1.1992,-1.1991,-1.1911,-1.1903,-1.1888,-1.1873,-1.1845,-1.1827,-1.1796,-1.1767,-1.1712,-1.1702,-1.171,-1.173,-1.1753,-1.1742,-1.1557,-1.1698,-1.1696,-1.1695,-1.1694,-1.1694,-1.2246,-1.2253,-1.2208,-1.2193,-1.2164,-1.2139,-1.214,-1.2095,-1.2082,-1.2052,-1.2011,-1.2002,-1.1961,-1.1914,-1.189,-1.1882,-1.1851,-1.1863,-1.1866,-1.187,-1.1881,-1.1755,-1.1877,-1.1876,-1.1875,-1.1875,-1.1875,0,-1.2384,-1.2352,-1.2338,-1.23,-1.2289,-1.2238,-1.2204,-1.2198,-1.2191,-1.2157,-1.214,-1.2124,-1.2107,-1.2053,-1.203,-1.2035,-1.2009,-1.2031,-1.203,-1.2024,-1.191,-1.1905,-1.2053,-1.2053,-1.2053,-1.2053,-1.2053,-1.2053,-1.2455,-1.2465,-1.2429,-1.2425,-1.2392,-1.2382,-1.2367,-1.2345,-1.2317,-1.2303,-1.2288,-1.2253,-1.2211,-1.2186,-1.2168,-1.2153,-1.2148,-1.2179,-1.2156,-1.2049,-1.2032,-1.2016,-1.2011,-1.2179,-1.2179,-1.227,-1.2271,-1.2272]},{"header":{"parameterUnit":"m.s-1","parameterCategory":1,"la1":30.2991,"la2":30.254,"lo1":-89.0895,"lo2":-89.0444,"dy":0.0017,"dx":0.0017,"nx":28,"ny":28,"refTime":"2024-08-10T09:00:00:Z","depth":0,"parameterNumber":3,"parameterNumberName":"V-component_of_WINDS"},"data":[0,0,0,0,0,0,0,0,0,0,0,0,0,0,0,0,0,0,0,0,0,0,0,0,0,0,0,0,0,0,0,0,0,0,0,0,0,0,0,0,0,0,0,0,0,0,0,0,0,0,0,0,0,0,0,0,0,0,1.3988,1.3988,0,1.399,1.399,1.399,1.4008,1.4009,1.4009,1.401,1.4011,1.4011,1.401,0,0,0,0,0,0,0,0,0,0,0,0,0,1.3998,1.3998,1.3988,1.3988,1.3988,1.399,1.399,1.399,1.4008,1.4009,1.4009,1.401,1.4011,1.4011,1.401,0,0,0,0,0,0,0,0,0,0,0,0,0,1.3997,1.3998,1.3988,1.3997,1.3998,1.399,1.399,1.399,1.4008,1.4009,1.401,1.401,1.4011,1.4011,1.401,1.3993,0,0,1.4008,1.4008,0,0,0,0,0,0,0,0,1.3997,1.3996,1.3996,1.3997,1.3998,1.4,1.3995,1.3991,1.4008,1.4004,1.401,1.4011,1.4007,1.4007,1.4005,1.3993,1.3993,1.4008,1.4008,1.4008,1.4008,0,0,0,0,0,0,0,1.3997,1.3996,1.3989,1.3996,1.3997,1.4001,1.4002,1.3994,1.4002,1.4005,1.4006,1.4006,1.4007,1.4006,1.4006,1.3993,1.4008,1.4008,1.4008,1.4007,1.3966,1.3966,0,0,0,0,0,0,1.3996,1.3996,1.3989,1.3989,1.3999,1.4,1.4001,1.3998,1.4002,1.4003,1.4006,1.4007,1.4007,1.4006,1.4006,1.3985,1.4008,1.4007,1.4007,1.3967,1.3966,1.3965,0,0,0,0,0,0,1.3996,1.3995,1.3989,1.3993,1.3993,1.4,1.3997,1.3998,1.3997,1.4003,1.4004,1.4003,1.4007,1.4007,1.3996,1.3985,1.4007,1.4006,1.3968,1.3967,1.3966,1.3944,0,0,0,0,0,0,1.3996,1.3995,1.3989,1.3993,1.3992,1.3979,1.3996,1.3998,1.3996,1.3998,1.4,1.4001,1.4008,1.3997,1.3995,1.3985,1.4006,1.3969,1.3968,1.3966,1.3946,1.3943,1.394,0,0,0,0,0,1.3996,1.3983,1.3988,1.3987,1.3985,1.3979,1.3978,1.3986,1.3995,1.3989,1.3992,1.4001,1.3987,1.3996,1.3994,1.3983,1.397,1.3968,1.3966,1.3947,1.3943,1.394,0,0,0,0,0,0,1.3977,1.3983,1.399,1.3977,1.3977,1.3982,1.3974,1.3982,1.3979,1.3981,1.3991,1.3991,1.3979,1.398,1.399,1.3967,1.398,1.3978,1.3966,1.3962,1.3959,1.3958,1.4006,0,0,0,0,0,1.3971,1.3966,1.3972,1.396,1.396,1.3967,1.3965,1.3971,1.3971,1.3971,1.3974,1.3974,1.3969,1.3966,1.3962,1.3947,1.3947,1.3939,1.3936,1.3933,1.3931,1.3922,1.3918,1.396,1.396,1.396,0,0,1.3959,1.3962,1.3958,1.3956,1.3957,1.3951,1.3967,1.396,1.3955,1.397,1.396,1.3962,1.3963,1.3949,1.3944,1.395,1.3919,1.3931,1.3929,1.3928,1.3919,1.3915,1.3912,1.3959,1.3959,1.3959,0,0,1.3934,1.3936,1.3926,1.3926,1.3928,1.3932,1.393,1.3933,1.3935,1.3926,1.3936,1.3931,1.3923,1.3923,1.3922,1.3896,1.3904,1.3895,1.3878,1.3869,1.3865,1.3862,1.3852,1.3848,1.3893,1.3893,1.3893,0,1.3918,1.391,1.3919,1.3911,1.391,1.3924,1.3913,1.3913,1.3913,1.3911,1.3919,1.3909,1.391,1.3896,1.389,1.3889,1.3886,1.3894,1.3865,1.3862,1.386,1.385,1.3846,1.3891,1.3891,1.3892,1.3892,0,1.389,1.3884,1.3876,1.3875,1.3873,1.3864,1.3871,1.3868,1.3874,1.3878,1.3867,1.387,1.3866,1.3864,1.387,1.385,1.3854,1.3864,1.3877,1.3854,1.3845,1.3841,1.389,1.389,1.389,1.3891,0,0,1.3851,1.3857,1.3853,1.3853,1.3855,1.385,1.3842,1.3839,1.3835,1.3835,1.3827,1.382,1.3828,1.3827,1.3833,1.3825,1.3803,1.3835,1.3835,1.3828,1.3781,1.3772,1.3768,1.3809,1.3808,1.3808,1.378,0,1.3826,1.3811,1.3819,1.3803,1.3797,1.381,1.3803,1.3803,1.3806,1.3802,1.3806,1.38,1.3812,1.3811,1.3804,1.3807,1.3794,1.381,1.3801,1.38,1.3799,1.3763,1.3755,1.3728,1.3777,1.3776,1.3776,0,1.3794,1.3792,1.3775,1.3778,1.3776,1.3769,1.3766,1.3762,1.3762,1.3765,1.3764,1.3772,1.3763,1.3777,1.3764,1.3775,1.3772,1.3773,1.3772,1.377,1.3785,1.3759,1.372,1.3716,1.377,1.3771,1.3771,0,1.3765,1.3759,1.3748,1.3747,1.3751,1.3745,1.3747,1.3748,1.3745,1.3743,1.3741,1.3738,1.3736,1.3733,1.374,1.375,1.3725,1.374,1.3727,1.3726,1.372,1.372,1.3678,1.372,1.372,1.372,1.3721,0,1.3735,1.3723,1.3735,1.3728,1.3715,1.3725,1.3713,1.3715,1.3716,1.371,1.3721,1.3715,1.3725,1.3719,1.3724,1.3712,1.3712,1.3713,1.3714,1.3711,1.371,1.3708,1.3709,1.3719,1.372,1.372,1.372,0,1.37,1.3707,1.3696,1.37,1.3701,1.3692,1.3696,1.3689,1.3694,1.3685,1.3683,1.369,1.3684,1.3691,1.3685,1.3689,1.3672,1.3677,1.3671,1.3672,1.3657,1.3658,1.3612,1.3605,1.3653,1.3653,1.3652,0,1.3679,1.3671,1.3675,1.3671,1.3672,1.3666,1.3663,1.3673,1.367,1.367,1.3663,1.3658,1.3654,1.3643,1.3647,1.3643,1.3646,1.363,1.3646,1.3642,1.3644,1.3644,1.3642,1.3627,1.3626,1.3626,1.3625,0,1.3641,1.3645,1.3641,1.3638,1.3634,1.3633,1.3631,1.3628,1.3638,1.3633,1.3627,1.3624,1.3619,1.3613,1.361,1.361,1.3619,1.3621,1.3617,1.3613,1.3609,1.3609,1.3661,1.3621,1.3622,1.3622,1.3622,1.3622,1.3612,1.3604,1.3606,1.3601,1.3601,1.36,1.3593,1.3597,1.3592,1.3588,1.3595,1.3587,1.3587,1.3584,1.3583,1.3577,1.3584,1.3579,1.3577,1.3575,1.3572,1.3612,1.3577,1.3577,1.3577,1.3577,1.3577,0,1.3573,1.3574,1.357,1.3568,1.3563,1.3573,1.3572,1.3568,1.3561,1.3561,1.3557,1.3549,1.3544,1.3548,1.3543,1.3537,1.3541,1.3535,1.3535,1.3535,1.3567,1.357,1.3532,1.3532,1.3532,1.3532,1.3532,1.3532,1.3552,1.354,1.3544,1.3532,1.3534,1.3526,1.3525,1.3523,1.3523,1.3514,1.351,1.3513,1.3514,1.351,1.3505,1.3506,1.3503,1.3496,1.3498,1.3528,1.3532,1.3537,1.3539,1.3495,1.3495,1.3466,1.3465,1.3465]}]]